This demonstration page uses our WeatherBlox Daily Observations layout. Learn more.

Left ArrowRight Arrow

44.8408, -93.29828

Hourly Observations for April 28, 2022

Temp ( °F °C ) Dew Point ( °F °C ) Humidity (%) Winds ( mph kmh ) Pressure ( in mb ) Visibility ( mi km ) Precip ( " mm )
12:53 am 00:53 Mostly Clear 42 5.6 23 -5 47 47 E 10 17 30.20 1023 10 16 0.00 0.00
1:53 am 01:53 Mostly Clear 41 5 22 -5.6 47 47 E 13 20 30.19 1022 10 16 0.00 0.00
2:53 am 02:53 Mostly Clear 40 4.4 23 -5 51 51 ESE 17 28 30.18 1022 10 16 0.00 0.00
3:53 am 03:53 Mostly Clear 38 3.3 22 -5.6 52 52 ESE 15 24 30.17 1022 10 16 0.00 0.00
4:53 am 04:53 Clear 38 3.3 21 -6.1 51 51 E 14 22 30.16 1021 10 16 0.00 0.00
5:53 am 05:53 Clear 37 2.8 20 -6.7 50 50 E 13 20 30.16 1021 10 16 0.00 0.00
6:53 am 06:53 Mostly Sunny 37 2.8 21 -6.1 52 52 E 14 22 30.16 1021 10 16 0.00 0.00
7:53 am 07:53 Mostly Sunny 39 3.9 21 -6.1 48 48 ESE 16 26 30.17 1022 10 16 0.00 0.00
8:37 am 08:37 Mostly Cloudy 40 4.4 20 -6.7 45 45 ESE 14 22 30.17 1022 10 16 0.00 0.00
8:53 am 08:53 Cloudy 40 4.4 20 -6.7 45 45 ESE 14 22 30.16 1021 10 16 0.00 0.00
9:53 am 09:53 Cloudy 41 5 22 -5.6 47 47 ESE 18 30 30.14 1021 10 16 0.00 0.00
10:53 am 10:53 Cloudy 42 5.6 24 -4.4 49 49 ESE 14 22 30.15 1021 10 16 0.00 0.00
11:53 am 11:53 Cloudy 44 6.7 26 -3.3 49 49 ESE 15 24 30.15 1021 10 16 0.00 0.00
12:53 pm 12:53 Cloudy 46 7.8 28 -2.2 50 50 ESE 13 20 30.12 1020 10 16 0.00 0.00
1:41 pm 13:41 Cloudy 45 7.2 28 -2.2 52 52 ESE 13 20 30.12 1020 10 16 0.00 0.00
1:53 pm 13:53 Cloudy 45 7.2 29 -1.7 54 54 E 15 24 30.12 1020 10 16 0.00 0.00
2:53 pm 14:53 Cloudy 45 7.2 30 -1.1 56 56 E 15 24 30.09 1019 10 16 0.00 0.00
3:53 pm 15:53 Cloudy 47 8.3 31 -0.6 54 54 E 9 15 30.10 1019 10 16 0.00 0.00
4:53 pm 16:53 Cloudy 49 9.4 32 0 52 52 ESE 17 28 30.05 1018 10 16 0.00 0.00
5:53 pm 17:53 Mostly Cloudy 51 10.6 34 1.1 52 52 ESE 14 22 30.02 1017 10 16 0.00 0.00
6:53 pm 18:53 Cloudy 51 10.6 35 1.7 54 54 ESE 16 26 30.03 1017 10 16 0.00 0.00
7:53 pm 19:53 Cloudy 50 10 35 1.7 57 57 ESE 15 24 30.01 1016 10 16 0.00 0.00
8:21 pm 20:21 Cloudy with Nearby Thunderstorms 50 10 35 1.7 57 57 ESE 13 20 30.01 1016 10 16 0.00 0.00
8:42 pm 20:42 Cloudy 50 10 35 1.7 57 57 SE 10 17 30.02 1017 10 16 0.00 0.00
8:53 pm 20:53 Cloudy 50 10 36 2.2 59 59 SE 22 35 30.02 1017 10 16 0.00 0.00
9:53 pm 21:53 Cloudy 49 9.4 37 2.8 64 64 SE 17 28 30.03 1017 10 16 0.00 0.00
10:13 pm 22:13 Cloudy 48 8.9 38 3.3 68 68 ESE 21 33 30.01 1016 10 16 0.00 0.00
10:53 pm 22:53 Cloudy 48 8.9 38 3.3 68 68 ESE 14 22 30.00 1016 10 16 0.00 0.00
11:36 pm 23:36 Cloudy 48 8.9 38 3.3 68 68 ESE 13 20 30.01 1016 10 16 0.00 0.00
11:53 pm 23:53 Cloudy 48 8.9 37 2.8 66 66 ESE 14 22 30.01 1016 10 16 0.00 0.00

Powered by AerisWeather